Waarnemingen

Advertentie
Mijn weer
Solenzara, Frankrijk (7765): temperatuur & dauwpunt: 19.09.2018 13:00:00 - 25.09.2018 13:00:00 (CEST)Solenzara, Frankrijk (7765): temperatuur 5cm: 19.09.2018 13:00:00 - 25.09.2018 13:00:00 (CEST)Solenzara, Frankrijk (7765): temperatuur -20cm: 19.09.2018 13:00:00 - 25.09.2018 13:00:00 (CEST)Solenzara, Frankrijk (7765): windsnelheid & windstoten: 19.09.2018 13:00:00 - 25.09.2018 13:00:00 (CEST)Solenzara, Frankrijk (7765): windrichting: 19.09.2018 13:00:00 - 25.09.2018 13:00:00 (CEST)Solenzara, Frankrijk (7765): luchtdruk: 19.09.2018 13:00:00 - 25.09.2018 13:00:00 (CEST)Solenzara, Frankrijk (7765): zicht: 19.09.2018 13:00:00 - 25.09.2018 13:00:00 (CEST)Solenzara, Frankrijk (7765): Zonneschijnduur: 19.09.2018 13:00:00 - 25.09.2018 13:00:00 (CEST)Solenzara, Frankrijk (7765): neerslag: 19.09.2018 13:00:00 - 25.09.2018 13:00:00 (CEST)
Datum & Tijd tt [°C] td [°C] tt 5cm [°C] tt -20cm [°C] ff [km/u] ff [kn] fx [km/u] fx [kn] dd ppp [hPa] vv [km] sd [min] rr [mm]
25.09.2018 13:00:00 22,7 9,8 26,0 25,2 29 16 45 25 NO 1026,8 21 60 0,0
25.09.2018 12:00:00 22,9 11,0 25,5 25,2 30 16 44 24 NO 1026,7 25 60 0,0
25.09.2018 11:00:00 22,6 10,7 21,6 25,3 27 15 40 22 NO 1026,5 28 31 0,0
25.09.2018 10:00:00 22,3 11,7 19,9 25,5 23 12 32 18 N 1026,1 34 30 0,0
25.09.2018 09:00:00 20,0 12,0 19,4 25,6 18 10 29 16 N 1025,5 60 1 0,0
25.09.2018 08:00:00 20,1 11,8 18,4 25,7 18 10 27 15 N 1024,6 60 0 0,0
25.09.2018 07:00:00 20,0 10,7 19,0 25,9 16 9 29 16 N 1023,9 60 0 0,0
25.09.2018 06:00:00 20,8 10,3 19,7 26,0 17 9 31 17 N 1023,4 60 0 0,0
25.09.2018 05:00:00 21,5 11,5 21,0 26,1 22 12 34 18 N 1023,0 60 0 0,0
25.09.2018 04:00:00 21,6 12,4 21,1 26,3 14 8 25 14 N 1022,5 60 0 0,0
25.09.2018 03:00:00 22,0 12,3 21,6 26,4 21 12 35 19 N 1022,1 60 0 0,0
25.09.2018 02:00:00 22,5 12,7 22,2 26,5 21 11 37 20 N 1021,7 60 0 0,0
25.09.2018 01:00:00 22,9 13,9 22,5 26,6 19 10 34 18 N 1021,2 60 0 0,0
25.09.2018 00:00:00 23,2 14,7 22,5 26,7 19 11 42 23 N 1020,7 60 0 0,0
24.09.2018 23:00:00 23,5 15,8 23,2 26,8 23 12 44 24 N 1020,2 60 0 0,0
24.09.2018 22:00:00 24,2 19,1 24,0 26,8 27 15 48 26 NNO 1018,9 57 0 0,0
24.09.2018 21:00:00 24,7 20,4 23,4 26,8 13 7 22 12 N 1017,5 39 0 0,0
24.09.2018 20:00:00 24,2 19,3 23,1 26,9 9 5 16 9 NNW 1016,3 49 0 0,0
24.09.2018 19:00:00 25,1 21,2 24,1 26,8 4 2 14 8 N 1015,1 20 0 0,0
24.09.2018 18:00:00 25,5 22,4 25,3 26,7 7 4 19 10 NO 1014,6 18 13 0,0
24.09.2018 17:00:00 27,2 21,7 27,6 26,5 9 5 19 10 NO 1014,2 32 48 0,0
24.09.2018 16:00:00 27,1 20,4 28,4 26,2 13 7 24 13 NNO 1014,4 20 60 0,0
24.09.2018 15:00:00 27,6 21,2 27,8 25,9 11 6 24 13 NNO 1014,5 26 60 0,0
24.09.2018 14:00:00 27,3 22,0 33,9 25,7 11 6 20 11 ONO 1014,5 20 60 0,0
24.09.2018 13:00:00 27,1 22,3 32,2 25,4 12 7 27 15 OZO 1014,3 12 60 0,0
24.09.2018 12:00:00 27,1 21,8 30,3 25,3 18 10 27 15 NO 1013,9 33 60 0,0
24.09.2018 11:00:00 26,8 20,9 29,0 25,3 18 10 24 13 ONO 1013,6 34 60 0,0
24.09.2018 10:00:00 25,7 20,7 26,7 25,3 9 5 18 10 NO 1012,9 33 60 0,0
24.09.2018 09:00:00 23,9 19,6 22,4 25,4 9 5 21 11 N 1012,1 31 60 0,0
24.09.2018 08:00:00 21,5 19,2 18,8 25,6 10 5 18 10 NNW 1012,0 20 35 0,0
24.09.2018 07:00:00 20,7 18,3 18,4 25,6 4 2 22 12 OZO 1011,4 31 0 0,0
24.09.2018 06:00:00 20,1 18,4 18,3 25,8 9 5 12 7 WZW 1012,0 20 0 0,0
24.09.2018 05:00:00 20,1 18,4 18,6 25,9 6 3 14 8 NNW 1012,4 18 0 0,0
24.09.2018 04:00:00 20,4 18,2 18,8 26,0 6 3 14 8 NNW 1012,7 19 0 0,0
24.09.2018 03:00:00 21,0 18,2 19,2 26,1 5 3 14 8 WNW 1013,2 29 0 0,0
24.09.2018 02:00:00 21,0 18,0 19,6 26,2 9 5 16 9 W 1014,3 33 0 0,0
24.09.2018 01:00:00 21,2 18,0 19,9 26,3 9 5 15 8 W 1014,8 36 0 0,0
24.09.2018 00:00:00 21,4 18,4 20,0 26,4 8 4 13 7 W 1015,6 33 0 0,0
23.09.2018 23:00:00 23,4 19,1 22,2 26,5 8 4 20 11 NNW 1015,9 43 0 0,0
23.09.2018 22:00:00 23,6 18,9 21,8 26,6 11 6 19 10 NNW 1016,0 48 0 0,0
23.09.2018 21:00:00 23,3 18,8 21,8 26,6 7 4 15 8 NW 1016,3 52 0 0,0
23.09.2018 20:00:00 23,8 19,1 22,6 26,7 10 5 15 8 NNW 1016,5 56 0 0,0
23.09.2018 19:00:00 25,0 19,8 24,3 26,7 9 5 26 14 Z 1016,7 50 1 0,0
23.09.2018 18:00:00 25,4 19,5 25,7 26,6 18 10 27 14 Z 1017,0 56 0 0,0
23.09.2018 17:00:00 25,7 18,9 26,7 26,6 19 10 29 16 ZZO 1017,5 42 1 0,0
23.09.2018 16:00:00 25,5 18,4 27,1 26,4 18 10 28 15 ZZO 1017,8 37 0 0,0
23.09.2018 15:00:00 25,9 20,0 28,6 26,2 15 8 22 12 ZZO 1018,3 29 0 0,0
23.09.2018 14:00:00 25,9 20,2 28,8 26,0 14 8 26 14 ZZO 1018,9 33 10 0,0
23.09.2018 13:00:00 26,3 20,8 30,2 25,8 16 9 26 14 ZZO 1019,3 43 56 0,0
23.09.2018 12:00:00 26,5 21,0 29,4 25,7 14 8 22 12 ZZO 1019,4 20 60 0,0
23.09.2018 11:00:00 26,5 20,3 30,1 25,6 12 7 19 10 ZO 1019,4 20 60 0,0
23.09.2018 10:00:00 26,0 20,3 30,0 25,7 7 4 11 6 ZO 1019,2 20 60 0,0
23.09.2018 09:00:00 23,9 17,6 22,5 25,8 6 3 15 8 W 1018,8 31 56 0,0
23.09.2018 08:00:00 21,6 16,3 20,5 25,9 9 5 16 8 W 1018,5 42 10 0,0
23.09.2018 07:00:00 21,6 15,9 20,5 25,9 9 5 16 9 W 1018,1 42 0 0,0
23.09.2018 06:00:00 21,7 16,4 20,9 26,1 9 5 19 10 W 1018,0 41 0 0,0
23.09.2018 05:00:00 21,9 16,0 20,9 26,2 11 6 18 10 W 1018,1 49 0 0,0
23.09.2018 04:00:00 21,9 16,0 20,3 26,3 9 5 16 8 W 1018,3 49 0 0,0
23.09.2018 03:00:00 22,2 16,7 20,2 26,5 9 5 16 8 W 1018,3 44 0 0,0
23.09.2018 02:00:00 21,5 17,3 20,1 26,5 9 5 16 9 W 1018,3 33 0 0,0
23.09.2018 01:00:00 21,9 18,1 20,5 26,7 9 5 14 8 W 1018,3 28 0 0,0
23.09.2018 00:00:00 22,5 19,3 20,9 26,8 6 3 16 9 W 1018,2 20 0 0,0
22.09.2018 23:00:00 23,1 18,6 21,5 26,9 10 5 20 11 W 1018,0 30 0 0,0
22.09.2018 22:00:00 23,1 20,4 21,7 26,9 8 4 13 7 WZW 1017,8 19 0 0,0
22.09.2018 21:00:00 24,2 20,7 22,3 27,0 4 2 5 3 W 1017,5 22 0 0,0
22.09.2018 20:00:00 25,0 20,9 23,1 26,9 4 2 14 8 NW 1016,7 22 0 0,0
22.09.2018 19:00:00 25,9 21,6 25,1 26,9 9 5 19 10 NO 1016,0 20 44 0,0
22.09.2018 18:00:00 26,8 21,6 27,1 26,7 11 6 22 12 ONO 1015,5 25 60 0,0
22.09.2018 17:00:00 27,4 21,7 28,5 26,5 16 9 26 14 NO 1015,4 20 60 0,0
22.09.2018 16:00:00 27,7 21,5 30,7 26,3 11 6 21 11 ONO 1015,4 10 60 0,0
22.09.2018 15:00:00 28,0 20,8 32,3 25,9 11 6 19 10 O 1015,6 17 60 0,0
22.09.2018 14:00:00 27,6 20,7 34,6 25,7 5 3 18 10 OZO 1015,6 6 60 0,0
22.09.2018 13:00:00 27,4 21,2 34,8 25,4 9 5 17 9 OZO 1015,6 19 60 0,0
22.09.2018 12:00:00 27,6 20,4 33,1 25,3 10 5 15 8 O 1015,4 19 60 0,0
22.09.2018 11:00:00 26,9 19,3 31,2 25,2 6 3 13 7 ONO 1015,8 19 60 0,0
22.09.2018 10:00:00 26,6 19,5 29,4 25,2 3 1 9 5 O 1015,8 30 60 0,0
22.09.2018 09:00:00 24,6 16,3 23,0 25,4 0 0 12 7 N 1015,8 43 60 0,0
22.09.2018 08:00:00 21,0 14,6 18,4 25,5 8 4 15 8 W 1015,3 52 29 0,0
22.09.2018 07:00:00 20,2 14,8 18,0 25,6 8 5 16 8 W 1015,2 50 0 0,0
22.09.2018 06:00:00 20,0 15,4 18,1 25,7 10 5 13 7 W 1015,4 41 0 0,0
22.09.2018 05:00:00 20,6 16,0 18,1 25,9 5 3 17 9 W 1015,5 32 0 0,4
22.09.2018 04:00:00 21,5 16,0 19,1 26,0 7 4 15 8 W 1015,7 40 0 0,0
22.09.2018 03:00:00 21,6 16,3 19,5 26,2 5 3 15 8 ZW 1016,2 28 0 0,0
22.09.2018 02:00:00 21,4 17,0 19,7 26,3 7 4 16 9 W 1016,5 31 0 0,0
22.09.2018 01:00:00 21,3 17,1 19,7 26,4 10 5 17 9 WNW 1016,7 33 0 0,0
22.09.2018 00:00:00 22,2 17,3 19,9 26,5 8 4 14 7 W 1016,9 32 0 0,0
21.09.2018 23:00:00 22,1 17,7 20,4 26,6 4 2 16 9 W 1016,8 26 0 0,0
21.09.2018 22:00:00 22,4 18,2 21,0 26,7 8 4 15 8 W 1016,7 25 0 0,0
21.09.2018 21:00:00 23,1 18,8 21,7 26,7 7 4 13 7 W 1016,3 25 0 0,0
21.09.2018 20:00:00 24,0 20,1 22,7 26,7 6 3 11 6 WZW 1015,5 24 0 0,0
21.09.2018 19:00:00 24,9 21,0 24,3 26,6 6 3 13 7 Z 1015,2 21 40 0,0
21.09.2018 18:00:00 25,9 21,1 26,8 26,4 11 6 16 9 Z 1015,3 20 55 0,0
21.09.2018 17:00:00 25,8 21,5 26,7 26,3 9 5 16 9 ZZO 1015,7 32 31 0,0
21.09.2018 16:00:00 26,7 20,3 30,4 26,0 13 7 21 11 ZO 1015,6 37 60 0,0
21.09.2018 15:00:00 27,2 21,0 32,5 25,7 10 6 20 11 OZO 1015,4 15 60 0,0
21.09.2018 14:00:00 27,5 21,8 35,0 25,3 13 7 22 12 O 1015,9 16 60 0,0
21.09.2018 13:00:00 27,6 21,4 34,3 25,1 13 7 22 12 O 1016,1 20 60 0,0
21.09.2018 12:00:00 27,5 20,6 32,2 24,9 14 8 21 11 O 1016,1 33 60 0,0
21.09.2018 11:00:00 27,3 19,6 30,4 24,9 12 7 24 13 NO 1015,9 50 60 0,0
21.09.2018 10:00:00 27,2 17,7 28,7 24,9 13 7 21 11 N 1015,7 60 60 0,0
21.09.2018 09:00:00 24,6 17,6 23,4 24,9 5 3 16 9 WNW 1015,5 60 60 0,0
21.09.2018 08:00:00 21,9 16,4 19,5 25,1 11 6 18 10 W 1015,4 38 24 0,0
21.09.2018 07:00:00 21,0 16,0 19,5 25,1 10 5 19 11 WNW 1015,0 56 0 0,0
21.09.2018 06:00:00 21,4 15,9 19,8 25,3 12 6 19 10 W 1015,0 58 0 0,0
21.09.2018 05:00:00 21,4 16,1 19,8 25,4 11 6 18 10 W 1015,3 58 0 0,0
21.09.2018 04:00:00 21,2 16,2 19,8 25,5 8 4 16 9 WNW 1015,2 55 0 0,0
21.09.2018 03:00:00 22,0 16,3 20,1 25,6 9 5 15 8 W 1015,6 59 0 0,0
21.09.2018 02:00:00 22,1 16,4 20,0 25,7 10 5 17 9 W 1015,7 58 0 0,0
21.09.2018 01:00:00 22,0 16,3 20,2 25,8 9 5 18 10 WNW 1016,0 60 0 0,0
21.09.2018 00:00:00 22,2 16,2 20,6 25,9 9 5 19 11 WNW 1016,7 60 0 0,0
20.09.2018 23:00:00 22,4 16,7 21,0 25,9 11 6 19 11 W 1016,7 60 0 0,0
20.09.2018 22:00:00 22,5 17,2 21,2 26,0 9 5 18 10 WNW 1016,8 58 0 0,0
20.09.2018 21:00:00 22,4 18,2 21,2 26,0 11 6 19 10 WNW 1016,7 46 0 0,0
20.09.2018 20:00:00 23,4 18,5 21,5 26,0 5 3 13 7 W 1016,2 53 0 0,0
20.09.2018 19:00:00 25,3 18,5 24,3 25,9 8 5 17 9 NNW 1016,2 57 31 0,0
20.09.2018 18:00:00 25,9 18,8 25,7 25,8 10 5 21 11 NO 1016,4 43 29 0,0
20.09.2018 17:00:00 26,3 19,4 27,4 25,7 14 7 22 12 ONO 1016,5 34 26 0,0
20.09.2018 16:00:00 26,9 18,2 26,7 25,6 16 9 23 12 NO 1016,5 20 37 0,0
20.09.2018 15:00:00 25,5 19,4 26,3 25,4 17 9 30 16 NO 1017,1 31 0 0,0
20.09.2018 14:00:00 25,9 19,5 27,3 25,2 21 11 30 16 NO 1017,5 25 32 0,0
20.09.2018 13:00:00 26,8 19,4 30,5 25,0 19 11 32 17 NO 1017,7 27 60 0,0
20.09.2018 12:00:00 27,6 20,4 30,4 24,9 22 12 39 21 ONO 1017,7 18 60 0,0
20.09.2018 11:00:00 27,7 18,7 29,7 24,8 27 14 40 21 NNO 1017,6 20 60 0,0
20.09.2018 10:00:00 26,4 19,5 26,8 24,8 16 8 27 14 N 1017,8 21 60 0,0
20.09.2018 09:00:00 24,4 18,3 22,2 24,9 15 8 23 12 N 1017,4 45 34 0,0
20.09.2018 08:00:00 22,1 17,5 18,9 25,0 10 6 20 11 NNW 1017,2 50 0 0,0
20.09.2018 07:00:00 20,9 17,5 18,9 25,1 3 2 6 3 NW 1017,1 34 0 0,0
20.09.2018 06:00:00 21,0 17,2 19,4 25,2 7 4 15 8 WNW 1016,9 42 0 0,0
20.09.2018 05:00:00 20,7 16,9 19,4 25,3 9 5 19 10 W 1017,2 50 0 0,0
20.09.2018 04:00:00 20,7 17,1 19,5 25,4 10 5 17 9 W 1017,5 48 0 0,0
20.09.2018 03:00:00 20,8 17,0 19,4 25,5 8 5 18 10 W 1017,8 52 0 0,0
20.09.2018 02:00:00 20,9 17,3 19,6 25,6 10 6 17 9 W 1018,1 52 0 0,0
20.09.2018 01:00:00 21,1 17,5 19,7 25,7 9 5 16 9 W 1018,5 51 0 0,0
20.09.2018 00:00:00 21,4 17,6 19,9 25,8 8 5 14 8 W 1018,5 53 0 0,0
19.09.2018 23:00:00 21,2 18,2 19,9 25,8 8 5 12 7 W 1018,8 50 0 0,0
19.09.2018 22:00:00 21,6 18,4 20,3 25,8 8 4 15 8 W 1018,7 53 0 0,0
19.09.2018 21:00:00 22,1 19,1 20,9 25,9 7 4 12 7 W 1018,5 53 0 0,0
19.09.2018 20:00:00 23,2 20,5 21,9 25,8 6 3 10 5 W 1018,1 46 0 0,0
19.09.2018 19:00:00 24,6 20,1 24,0 25,8 3 2 8 5 NNW 1018,1 60 29 0,0
19.09.2018 18:00:00 24,6 20,3 25,0 25,6 0 0 8 4 N 1018,2 20 1 0,0
19.09.2018 17:00:00 24,5 20,0 25,1 25,5 7 4 15 8 ONO 1018,0 20 0 0,0
19.09.2018 16:00:00 25,1 20,1 26,6 25,2 11 6 24 13 NO 1018,3 20 47 0,0
19.09.2018 15:00:00 26,7 21,0 29,6 25,0 16 9 29 16 NO 1018,3 20 60 0,0
19.09.2018 14:00:00 26,7 21,5 27,6 24,8 15 8 23 13 ONO 1018,5 20 43 0,0
19.09.2018 13:00:00 25,2 20,9 27,1 24,7 9 5 20 11 ONO 1018,8 20 2 0,0

tt = temperatuur
td = dauwpunt
tt 5cm = temperatuur 5cm
tt -20cm = temperatuur -20cm
ff = windsnelheid
fx = windstoten
dd = windrichting
ppp = luchtdruk
vv = zicht
sd = Zonneschijnduur
rr = neerslag

Weerstations in de omgeving